ECHOSTAR 5

导读 | 星芒AI

ECHOSTAR 5 是一颗由 Hughes Space and Communications 公司制造的通信卫星,于 1994 年 4 月 18 日由美国德尔塔 II 火箭发射升空。该卫星由 Echostar 公司运营,主要用于北美地区的直接到户(DTH)电视广播服务。它搭载 C 波段和 Ku 波段转发器,提供高清电视信号传输。ECHOSTAR 5 位于西经 110 度的地球静止轨道,为 Dish Network 等服务提供商提供支持,是美国卫星电视发展的重要组成部分。

基本信息
目录编号:
25913
目录名称:
ECHOSTAR 5
国际标识:
1999-050A
轨道中心:
EARTH
卫星名称:
ECHOSTAR 5
卫星全名:
--
卫星状态:
在轨 (已飞行9578 天)
发射日期:
1999-09-23 UTC
国别 :
美国 (US)
星等 :
--
轨道信息
数据来源 国际轨道数据
星历时间: 2025-12-12T20:52:36+0800
20小时前
查看轨道信息
半长轴: 42597.13km
偏心率: 0.0005534
轨道倾角: 11.630°
近地点辐角 234.843°
升交点赤经 37.584°
平近点角 158.969°
近地点: 36195.421km
远地点: 36242.569km
周期: 1458.244分钟
每日圈数: 0.987489
详细信息
使用方式:
暂无
2D轨道图
3D轨道图
轨道高度分析图
轨道倾角分析图
轨道综合分析图
查看轨道综合分析图